| time (UTC) | temp F | wind direction | speed MPH | gust MPH | rain 1hr in | rain 24hr in | rain mn in | humidity % | barometer mb |
| 20260508073011 | 54 | 316 | 6.0 | 4.0 | 0.00 | 0.00 | 0.00 | 50 | 1023.7 |
| 20260508072010 | 52 | 260 | 5.0 | 8.0 | 0.00 | 0.00 | 0.00 | 50 | 1023.7 |
| 20260508071011 | 52 | 306 | 5.0 | 5.0 | 0.00 | 0.00 | 0.00 | 50 | 1023.6 |
| 20260508070011 | 52 | 341 | 5.0 | 6.0 | 0.00 | 0.00 | 0.00 | 52 | 1023.5 |
| 20260508065011 | 52 | 329 | 4.0 | 7.0 | 0.00 | 0.00 | 0.00 | 53 | 1023.4 |
| 20260508064011 | 51 | 286 | 3.0 | 4.0 | 0.00 | 0.00 | 0.00 | 56 | 1023.4 |
| 20260508063011 | 51 | 6 | 5.0 | 6.0 | 0.00 | 0.00 | 0.00 | 58 | 1023.2 |
| 20260508062011 | 50 | 323 | 3.0 | 4.0 | 0.00 | 0.00 | 0.00 | 63 | 1023.2 |
| 20260508061010 | 48 | 356 | 3.0 | 3.0 | 0.00 | 0.00 | 0.00 | 66 | 1023.1 |
| 20260508060011 | 46 | 259 | 3.0 | 2.0 | 0.00 | 0.00 | 0.00 | 69 | 1023.1 |
| 20260508055010 | 43 | 267 | 2.0 | 3.0 | 0.00 | 0.00 | 0.00 | 71 | 1023.0 |
| 20260508054010 | 42 | 254 | 3.0 | 2.0 | 0.00 | 0.00 | 0.00 | 75 | 1022.9 |
| 20260508053011 | 39 | 274 | 4.0 | 3.0 | 0.00 | 0.00 | 0.00 | 77 | 1022.7 |
| 20260508052010 | 36 | 299 | 2.0 | 2.0 | 0.00 | 0.00 | 0.00 | 81 | 1022.7 |
| 20260508051010 | 33 | 283 | 2.0 | 3.0 | 0.00 | 0.00 | 0.00 | 83 | 1022.5 |
| 20260508050011 | 31 | 1 | 1.0 | 2.0 | 0.00 | 0.00 | 0.00 | 82 | 1022.4 |
| 20260508045011 | 30 | 334 | 1.0 | 2.0 | 0.00 | 0.00 | 0.00 | 82 | 1022.4 |
| 20260508044011 | 28 | 292 | 0.0 | 0.0 | 0.00 | 0.00 | 0.00 | 81 | 1022.3 |
| 20260508043011 | 27 | 180 | 0.0 | 0.0 | 0.00 | 0.00 | 0.00 | 80 | 1022.3 |
| 20260508042011 | 27 | 180 | 0.0 | 0.0 | 0.00 | 0.00 | 0.00 | 80 | 1022.1 |
| 20260508041011 | 26 | 212 | 1.0 | 1.0 | 0.00 | 0.00 | 0.00 | 79 | 1022.0 |
| 20260508040011 | 25 | 127 | 1.0 | 2.0 | 0.00 | 0.00 | 0.00 | 79 | 1021.9 |
| 20260508035011 | 25 | 58 | 2.0 | 2.0 | 0.00 | 0.00 | 0.00 | 79 | 1021.9 |
| 20260508034011 | 24 | 270 | 0.0 | 0.0 | 0.00 | 0.00 | 0.00 | 79 | 1021.8 |
| 20260508033011 | 24 | 270 | 0.0 | 0.0 | 0.00 | 0.00 | 0.00 | 79 | 1021.8 |
| 20260508032010 | 24 | 270 | 0.0 | 0.0 | 0.00 | 0.00 | 0.00 | 78 | 1021.7 |
| 20260508031010 | 24 | 270 | 0.0 | 0.0 | 0.00 | 0.00 | 0.00 | 78 | 1021.7 |
| 20260508030010 | 23 | 270 | 0.0 | 1.0 | 0.00 | 0.00 | 0.00 | 78 | 1021.6 |
| 20260508025010 | 23 | 270 | 0.0 | 1.0 | 0.00 | 0.00 | 0.00 | 78 | 1021.5 |
| 20260508024011 | 23 | 270 | 1.0 | 2.0 | 0.00 | 0.00 | 0.00 | 78 | 1021.4 |
| 20260508023011 | 23 | 270 | 0.0 | 1.0 | 0.00 | 0.00 | 0.00 | 78 | 1021.3 |
| 20260508022011 | 23 | 270 | 1.0 | 1.0 | 0.00 | 0.00 | 0.00 | 78 | 1021.2 |
| 20260508021011 | 23 | 270 | 1.0 | 1.0 | 0.00 | 0.00 | 0.00 | 77 | 1021.2 |
| 20260508020011 | 23 | 270 | 1.0 | 1.0 | 0.00 | 0.00 | 0.00 | 77 | 1021.1 |
| 20260508015011 | 24 | 270 | 1.0 | 1.0 | 0.00 | 0.00 | 0.00 | 77 | 1021.1 |
| 20260508014011 | 24 | 270 | 0.0 | 0.0 | 0.00 | 0.00 | 0.00 | 77 | 1021.0 |
| 20260508013011 | 24 | 270 | 1.0 | 0.0 | 0.00 | 0.00 | 0.00 | 77 | 1020.9 |
| 20260508012010 | 24 | 270 | 1.0 | 0.0 | 0.00 | 0.00 | 0.00 | 77 | 1020.8 |
| 20260508011010 | 24 | 270 | 1.0 | 1.0 | 0.00 | 0.00 | 0.00 | 76 | 1020.7 |
| 20260508010011 | 24 | 270 | 1.0 | 2.0 | 0.00 | 0.00 | 0.00 | 76 | 1020.6 |
| 20260508005010 | 24 | 270 | 2.0 | 2.0 | 0.00 | 0.00 | 0.00 | 76 | 1020.6 |
| 20260508004011 | 24 | 270 | 0.0 | 0.0 | 0.00 | 0.00 | 0.00 | 76 | 1020.4 |
| 20260508003011 | 24 | 270 | 0.0 | 0.0 | 0.00 | 0.00 | 0.00 | 76 | 1020.3 |
| 20260508002011 | 25 | 270 | 0.0 | 0.0 | 0.00 | 0.00 | 0.00 | 76 | 1020.3 |
| 20260508001011 | 25 | 270 | 0.0 | 0.0 | 0.00 | 0.00 | 0.00 | 76 | 1020.2 |
| 20260508000011 | 25 | 270 | 0.0 | 0.0 | 0.00 | 0.00 | 0.00 | 76 | 1020.0 |
| 20260507235011 | 25 | 270 | 0.0 | 0.0 | 0.00 | 0.00 | 0.00 | 76 | 1020.0 |
| 20260507234010 | 25 | 270 | 0.0 | 0.0 | 0.00 | 0.00 | 0.00 | 75 | 1019.8 |
| 20260507233011 | 25 | 270 | 0.0 | 0.0 | 0.00 | 0.00 | 0.00 | 75 | 1019.8 |
| 20260507232011 | 25 | 270 | 0.0 | 0.0 | 0.00 | 0.00 | 0.00 | 75 | 1019.6 |
| 20260507231011 | 26 | 270 | 0.0 | 0.0 | 0.00 | 0.00 | 0.00 | 75 | 1019.5 |
| 20260507230011 | 26 | 270 | 0.0 | 1.0 | 0.00 | 0.00 | 0.00 | 74 | 1019.4 |
| 20260507225010 | 26 | 270 | 1.0 | 0.0 | 0.00 | 0.00 | 0.00 | 75 | 1019.4 |
| 20260507224011 | 26 | 270 | 1.0 | 1.0 | 0.00 | 0.00 | 0.00 | 74 | 1019.2 |
| 20260507223011 | 26 | 270 | 1.0 | 1.0 | 0.00 | 0.00 | 0.00 | 74 | 1019.1 |
| 20260507222010 | 27 | 270 | 0.0 | 0.0 | 0.00 | 0.00 | 0.00 | 73 | 1019.0 |
| 20260507221011 | 27 | 270 | 0.0 | 0.0 | 0.00 | 0.00 | 0.00 | 73 | 1019.0 |
| 20260507220010 | 27 | 270 | 0.0 | 0.0 | 0.00 | 0.00 | 0.00 | 73 | 1018.9 |
| 20260507215011 | 27 | 270 | 0.0 | 0.0 | 0.00 | 0.00 | 0.00 | 73 | 1018.9 |
| 20260507214011 | 27 | 270 | 0.0 | 0.0 | 0.00 | 0.00 | 0.00 | 73 | 1018.8 |
| 20260507213011 | 28 | 270 | 0.0 | 0.0 | 0.00 | 0.00 | 0.00 | 72 | 1018.6 |
| 20260507212011 | 28 | 270 | 1.0 | 0.0 | 0.00 | 0.00 | 0.00 | 72 | 1018.5 |
| 20260507211011 | 28 | 270 | 0.0 | 0.0 | 0.00 | 0.00 | 0.00 | 71 | 1018.4 |
| 20260507210011 | 28 | 270 | 0.0 | 0.0 | 0.00 | 0.00 | 0.00 | 70 | 1018.3 |
| 20260507205011 | 29 | 270 | 0.0 | 0.0 | 0.00 | 0.00 | 0.00 | 70 | 1018.2 |
| 20260507204011 | 29 | 270 | 0.0 | 0.0 | 0.00 | 0.00 | 0.00 | 70 | 1018.1 |
| 20260507203011 | 29 | 270 | 0.0 | 0.0 | 0.00 | 0.00 | 0.00 | 70 | 1018.0 |
| 20260507202011 | 30 | 270 | 1.0 | 1.0 | 0.00 | 0.00 | 0.00 | 69 | 1018.0 |
| 20260507201011 | 30 | 270 | 1.0 | 2.0 | 0.00 | 0.00 | 0.00 | 69 | 1018.0 |
| 20260507200011 | 30 | 270 | 1.0 | 2.0 | 0.00 | 0.00 | 0.00 | 68 | 1017.8 |
| 20260507195011 | 31 | 270 | 1.0 | 1.0 | 0.00 | 0.00 | 0.00 | 68 | 1017.7 |
| 20260507194010 | 32 | 270 | 1.0 | 2.0 | 0.00 | 0.00 | 0.00 | 67 | 1017.6 |
| 20260507193011 | 33 | 270 | 0.0 | 0.0 | 0.00 | 0.00 | 0.00 | 65 | 1017.4 |
| 20260507192011 | 33 | 270 | 1.0 | 0.0 | 0.00 | 0.00 | 0.00 | 65 | 1017.2 |
| 20260507191010 | 34 | 270 | 0.0 | 1.0 | 0.00 | 0.00 | 0.00 | 64 | 1017.1 |
| 20260507190011 | 35 | 270 | 1.0 | 2.0 | 0.00 | 0.00 | 0.00 | 63 | 1017.0 |
| 20260507185011 | 36 | 225 | 1.0 | 2.0 | 0.00 | 0.00 | 0.00 | 61 | 1016.8 |
| 20260507184011 | 37 | 270 | 0.0 | 1.0 | 0.00 | 0.00 | 0.00 | 61 | 1016.7 |
| 20260507183011 | 38 | 270 | 0.0 | 1.0 | 0.00 | 0.00 | 0.00 | 60 | 1016.6 |
| 20260507182011 | 39 | 270 | 0.0 | 0.0 | 0.00 | 0.00 | 0.00 | 59 | 1016.5 |
| 20260507181011 | 39 | 275 | 2.0 | 1.0 | 0.00 | 0.00 | 0.00 | 58 | 1016.5 |
| 20260507180011 | 40 | 238 | 2.0 | 2.0 | 0.00 | 0.00 | 0.00 | 57 | 1016.3 |
| 20260507175011 | 42 | 292 | 1.0 | 1.0 | 0.00 | 0.00 | 0.00 | 56 | 1016.3 |
| 20260507174011 | 43 | 292 | 2.0 | 2.0 | 0.00 | 0.00 | 0.00 | 56 | 1016.2 |
| 20260507173011 | 44 | 272 | 3.0 | 2.0 | 0.00 | 0.00 | 0.00 | 55 | 1016.1 |
| 20260507172011 | 44 | 261 | 5.0 | 3.0 | 0.00 | 0.00 | 0.00 | 55 | 1016.0 |
| 20260507171011 | 45 | 246 | 4.0 | 5.0 | 0.00 | 0.00 | 0.00 | 55 | 1016.0 |
| 20260507170010 | 46 | 298 | 4.0 | 5.0 | 0.00 | 0.00 | 0.00 | 55 | 1015.9 |
| 20260507165011 | 47 | 261 | 3.0 | 4.0 | 0.00 | 0.00 | 0.00 | 54 | 1015.7 |
| 20260507164012 | 48 | 266 | 4.0 | 4.0 | 0.00 | 0.00 | 0.00 | 54 | 1015.8 |
| 20260507163011 | 45 | 275 | 6.0 | 7.0 | 0.00 | 0.00 | 0.00 | 57 | 1015.7 |
| 20260507162010 | 44 | 271 | 3.0 | 4.0 | 0.00 | 0.00 | 0.00 | 57 | 1015.7 |
| 20260507161010 | 44 | 292 | 2.0 | 3.0 | 0.00 | 0.00 | 0.00 | 56 | 1015.7 |
| 20260507160010 | 44 | 293 | 2.0 | 2.0 | 0.00 | 0.00 | 0.00 | 56 | 1015.6 |
| 20260507155011 | 45 | 300 | 7.0 | 4.0 | 0.00 | 0.00 | 0.00 | 55 | 1015.5 |
| 20260507154011 | 45 | 305 | 3.0 | 4.0 | 0.00 | 0.00 | 0.00 | 55 | 1015.5 |
| 20260507153011 | 46 | 308 | 5.0 | 7.0 | 0.00 | 0.00 | 0.00 | 54 | 1015.4 |
| 20260507152011 | 47 | 336 | 6.0 | 8.0 | 0.00 | 0.00 | 0.00 | 55 | 1015.4 |
| 20260507151011 | 46 | 313 | 5.0 | 4.0 | 0.00 | 0.00 | 0.00 | 56 | 1015.2 |
| 20260507150011 | 46 | 341 | 5.0 | 6.0 | 0.00 | 0.00 | 0.00 | 56 | 1015.1 |
| 20260507145011 | 46 | 284 | 4.0 | 5.0 | 0.00 | 0.00 | 0.00 | 57 | 1015.1 |
| 20260507144011 | 45 | 263 | 5.0 | 6.0 | 0.00 | 0.00 | 0.00 | 58 | 1015.2 |
| 20260507143011 | 45 | 233 | 4.0 | 5.0 | 0.00 | 0.00 | 0.00 | 59 | 1015.1 |
| 20260507142011 | 45 | 251 | 4.0 | 4.0 | 0.00 | 0.00 | 0.00 | 59 | 1015.1 |
| 20260507141012 | 45 | 242 | 3.0 | 6.0 | 0.00 | 0.00 | 0.00 | 59 | 1014.9 |
| 20260507140011 | 44 | 214 | 3.0 | 4.0 | 0.00 | 0.00 | 0.00 | 60 | 1014.8 |
| 20260507135011 | 44 | 208 | 4.0 | 4.0 | 0.00 | 0.00 | 0.00 | 61 | 1014.8 |
| 20260507134011 | 43 | 288 | 4.0 | 4.0 | 0.00 | 0.00 | 0.00 | 61 | 1014.8 |
| 20260507133011 | 43 | 256 | 4.0 | 6.0 | 0.00 | 0.00 | 0.00 | 61 | 1014.8 |
| 20260507132011 | 43 | 254 | 3.0 | 4.0 | 0.00 | 0.00 | 0.00 | 61 | 1014.8 |
| 20260507131010 | 43 | 257 | 5.0 | 4.0 | 0.00 | 0.00 | 0.00 | 61 | 1014.8 |
| 20260507130011 | 42 | 279 | 3.0 | 4.0 | 0.00 | 0.00 | 0.00 | 61 | 1014.8 |
| 20260507125011 | 42 | 262 | 3.0 | 3.0 | 0.00 | 0.00 | 0.00 | 59 | 1014.9 |
| 20260507124011 | 42 | 274 | 6.0 | 6.0 | 0.00 | 0.00 | 0.00 | 58 | 1014.9 |
| 20260507123011 | 43 | 250 | 5.0 | 5.0 | 0.00 | 0.00 | 0.00 | 58 | 1015.0 |
| 20260507122010 | 44 | 331 | 7.0 | 8.0 | 0.00 | 0.00 | 0.00 | 57 | 1015.1 |
| 20260507121011 | 45 | 322 | 7.0 | 9.0 | 0.00 | 0.00 | 0.00 | 56 | 1015.1 |
| 20260507120010 | 46 | 184 | 6.0 | 8.0 | 0.00 | 0.00 | 0.00 | 56 | 1015.1 |
| 20260507115011 | 46 | 149 | 6.0 | 5.0 | 0.00 | 0.00 | 0.00 | 56 | 1015.0 |
| 20260507114011 | 47 | 142 | 7.0 | 9.0 | 0.00 | 0.00 | 0.00 | 56 | 1014.8 |
| 20260507113011 | 47 | 44 | 5.0 | 6.0 | 0.00 | 0.00 | 0.00 | 56 | 1014.8 |
| 20260507112011 | 47 | 141 | 8.0 | 6.0 | 0.00 | 0.00 | 0.00 | 57 | 1014.8 |
| 20260507111010 | 47 | 141 | 9.0 | 11.0 | 0.00 | 0.00 | 0.00 | 57 | 1014.9 |
| 20260507110011 | 46 | 118 | 8.0 | 10.0 | 0.00 | 0.00 | 0.00 | 58 | 1014.9 |
| 20260507105011 | 46 | 142 | 6.0 | 6.0 | 0.00 | 0.00 | 0.00 | 58 | 1014.8 |
| 20260507104010 | 46 | 155 | 8.0 | 10.0 | 0.00 | 0.00 | 0.00 | 58 | 1014.8 |
| 20260507103011 | 46 | 133 | 9.0 | 8.0 | 0.00 | 0.00 | 0.00 | 58 | 1014.9 |
| 20260507102011 | 46 | 137 | 9.0 | 11.0 | 0.00 | 0.00 | 0.00 | 59 | 1014.8 |
| 20260507101011 | 45 | 139 | 7.0 | 6.0 | 0.00 | 0.00 | 0.00 | 59 | 1014.7 |
| 20260507100011 | 45 | 145 | 9.0 | 12.0 | 0.00 | 0.00 | 0.00 | 59 | 1014.6 |
| 20260507095010 | 46 | 129 | 10.0 | 10.0 | 0.00 | 0.00 | 0.00 | 59 | 1014.5 |
| 20260507094010 | 46 | 148 | 7.0 | 9.0 | 0.00 | 0.00 | 0.00 | 59 | 1014.5 |
| 20260507093010 | 45 | 154 | 6.0 | 9.0 | 0.00 | 0.00 | 0.00 | 59 | 1014.5 |
| 20260507092011 | 45 | 162 | 6.0 | 7.0 | 0.00 | 0.00 | 0.00 | 60 | 1014.4 |
| 20260507091010 | 45 | 209 | 6.0 | 9.0 | 0.00 | 0.00 | 0.00 | 59 | 1014.4 |
| 20260507090011 | 45 | 144 | 8.0 | 13.0 | 0.00 | 0.00 | 0.00 | 59 | 1014.4 |
| 20260507085011 | 45 | 145 | 4.0 | 5.0 | 0.00 | 0.00 | 0.00 | 59 | 1014.4 |
| 20260507084010 | 45 | 192 | 7.0 | 7.0 | 0.00 | 0.00 | 0.00 | 59 | 1014.3 |
| 20260507083011 | 45 | 154 | 6.0 | 8.0 | 0.00 | 0.00 | 0.00 | 58 | 1014.4 |
| 20260507082010 | 45 | 136 | 7.0 | 7.0 | 0.00 | 0.00 | 0.00 | 58 | 1014.2 |
| 20260507081011 | 45 | 149 | 6.0 | 8.0 | 0.00 | 0.00 | 0.00 | 58 | 1014.2 |
| 20260507080010 | 45 | 124 | 7.0 | 8.0 | 0.00 | 0.00 | 0.00 | 58 | 1014.1 |
| 20260507075011 | 45 | 142 | 6.0 | 6.0 | 0.00 | 0.00 | 0.00 | 58 | 1014.1 |
| 20260507074011 | 45 | 188 | 3.0 | 4.0 | 0.00 | 0.00 | 0.00 | 58 | 1014.0 |